Weather Roundup
Issued by NWS

Home | Current Version | Previous Version | Graphics & Text | Print | Product List | Glossary Off
Versions: 1 2 3 4 5 6 7 8 9 10 11 12 13 14 15 16 17 18 19 20 21 22 23 24 25 26 27 28 29 30 31 32 33 34 35 36 37 38 39 40 41 42 43 44 45 46 47 48 49 50

000
NZUS93 KARX 230810
HRRWXR

CURRENT HOURLY OBSERVATIONS ACROSS
MUCH OF THE UPPER MISSISSIPPI VALLEY
NATIONAL WEATHER SERVICE LA CROSSE WI
300 AM CDT TUE SEP 23 2014


...SOUTHEAST MINNESOTA...


CITY           SKY/WX    TMP DP  RH WIND       PRES   REMARKS
ROCHESTER      CLEAR     47  45  93 S6        30.23S
ROCHESTER/MAYO FAIR      51  46  80 SE3       30.22S
WINONA         CLEAR     50  48  93 CALM      30.22F
AUSTIN         CLEAR     46  45  93 CALM      30.22S
ALBERT LEA     CLEAR     54  48  82 S3        30.21S
DODGE CENTER   CLEAR     48  46  93 CALM      30.21S
PRESTON        CLEAR     50  49  98 SW7       30.24R
OWATONNA       CLEAR     52  46  82 CALM      30.20S
FARIBAULT      CLEAR     46  43  87 CALM      30.20S
$$

...ELSEWHERE IN MINNESOTA...


CITY           SKY/WX    TMP DP  RH WIND       PRES   REMARKS
MINNEAPOLIS    CLEAR     54  50  86 CALM      30.18F
INTNL FALLS    CLEAR     42  41  96 CALM      30.11S
DULUTH         CLEAR     55  47  74 W8        30.17R
RED WING       CLEAR     48  46  93 CALM      30.19F
REDWOOD FALLS  CLEAR     50  46  86 S7        30.14F
MANKATO        CLEAR     52  43  71 S9        30.18F
WORTHINGTON    CLEAR     54  46  76 S6        30.16F
FAIRMONT       CLEAR     46  41  81 S6        30.19S
$$

...SOUTHWEST WISCONSIN...


CITY           SKY/WX    TMP DP  RH WIND       PRES   REMARKS
LA CROSSE      PTCLDY    51  49  92 SE7       30.23S
PRAIRIE DU CHI CLEAR     48  46  94 CALM      30.25S
BOSCOBEL       FOG       46  44  93 CALM      30.26S VSB 1/4
LONE ROCK      HAZE      47  42  83 CALM      30.26R VSB 1/2
PLATTEVILLE    CLEAR     50  47  88 SE3       30.26S
FORT MC COY    CLOUDY    41  41 100 CALM      30.24S FOG
CAMP DOUGLAS   FOG       40  40 100 E3        30.23S VSB 1/2
VIROQUA        FAIR      51  49  92 SW3       30.24S
WIS DELLS      CLEAR     48  47  95 CALM      30.24S
$$

...ELSEWHERE IN WISCONSIN...


CITY           SKY/WX    TMP DP  RH WIND       PRES   REMARKS
MILWAUKEE      CLEAR     53  46  77 CALM      30.25S
MADISON        CLEAR     48  45  89 CALM      30.25S
GREEN BAY      CLEAR     47  46  97 CALM      30.21S
EAU CLAIRE     FOG       45  45 100 CALM      30.20S VSB 3/4
BLACK RVR FLS  FOG       39  39 100 CALM      30.22S VSB 1/4
MEDFORD        FOG       44  44  99 CALM      30.22S VSB<1/4
WAUSAU         CLEAR     49  47  93 CALM      30.21S
WIS RAPIDS     CLEAR     44  43  96 CALM      30.24S FOG
MARSHFIELD     CLEAR     48  45  89 CALM      30.22S
RICE LAKE      CLEAR     45  44  97 CALM      30.21F FOG
$$

...NORTHEAST IOWA...


CITY           SKY/WX    TMP DP  RH WIND       PRES   REMARKS
WATERLOO       CLEAR     46  43  89 CALM      30.23S
DUBUQUE        CLEAR     47  44  90 S5        30.26S
DECORAH        CLEAR     52  46  82 CALM      30.23F
MASON CITY     CLEAR     47  45  93 S6        30.23S
CHARLES CITY   CLEAR     50  48  93 S7        30.23F
OELWEIN        CLEAR     48  46  93 SE5       30.25S
$$

...ELSEWHERE IN IOWA...


CITY           SKY/WX    TMP DP  RH WIND       PRES   REMARKS
DES MOINES     CLEAR     54  50  86 SE7       30.22F
IOWA CITY      CLEAR     47  46  97 CALM      30.26S
FORT DODGE     CLEAR     54  48  82 CALM      30.21S
MARSHALLTOWN   PTCLDY    48  45  89 E3        30.23S
CEDAR RAPIDS   CLEAR     47  46  97 SE5       30.24F
$$

...NORTHERN ILLINOIS...


CITY           SKY/WX    TMP DP  RH WIND       PRES   REMARKS
CHICAGO-OHARE  CLEAR     53  43  68 CALM      30.27S
DUPAGE         CLEAR     49  46  90 S5        30.28R
CHICAGO-MIDWAY CLEAR     53  44  71 S7        30.27F
MOLINE         CLEAR     46  43  89 CALM      30.26F
ROCKFORD       CLEAR     46  43  89 S5        30.29S
STERLING       CLEAR     43  39  87 CALM      30.28S
PEORIA         CLEAR     50  46  86 CALM      30.28F
$$

NOTE: "FAIR" INDICATES FEW OR NO CLOUDS BELOW 12,000 FEET WITH NO
SIGNIFICANT WEATHER AND/OR OBSTRUCTIONS TO VISIBILITY. WIND
SPEEDS ARE IN MILES-PER-HOUR.



USA.gov is the U.S. government's official web portal to all federal, state and local government web resources and services.